Wind_Speed
124 124 124 123 123 123 122 121 120 119 118 117 117 117 117 119 120 121 123 124 125 126 128 128 129 128 128 128 127 125 124 122 120 118 117 115 114 112 110 109 107 105 104 103 102 101 100 100 99 98 98 97 97 97 97 96 96 96 96 96 95 95 95 94 94 94 93 93 93 93 93 93 93 92 92 92 92 92 92 92 93 93 94 94 95 95
123 123 123 122 121 121 120 119 118 117 118 118 118 119 120 121 123 124 125 126 127 128 129 129 129 128 127 126 124 122 120 118 116 114 113 111 110 108 107 105 103 101 100 99 99 98 97 96 96 95 95 94 94 94 94 94 93 93 93 93 93 93 92 92 92 91 91 91 90 90 90 90 90 90 90 90 89 89 89 90 90 90 91 92 92 93
122 122 121 120 120 119 119 118 118 118 118 119 120 121 122 124 125 127 128 129 129 129 130 129 128 126 125 123 121 119 116 114 112 111 109 108 106 105 103 101 99 98 97 96 96 95 94 93 93 92 92 92 91 91 91 91 91 91 91 91 91 90 90 90 89 89 89 88 88 88 88 88 88 88 87 87 87 87 87 87 87 88 88 89 89 90
121 120 120 119 118 118 118 118 118 119 120 121 122 124 125 126 128 129 130 130 130 130 129 127 126 123 121 119 117 114 112 110 108 107 105 104 103 101 99 98 96 95 94 93 93 92 91 90 90 89 89 89 89 89 89 89 89 89 89 88 88 88 88 87 87 87 86 86 86 86 85 85 85 85 85 85 85 85 85 85 85 85 85 86 87 87
119 119 118 118 118 118 118 119 120 121 122 124 125 126 127 129 130 130 130 130 129 128 126 124 122 119 117 114 112 110 108 106 105 103 102 101 99 98 96 94 93 92 91 90 89 89 88 87 87 87 86 86 86 86 86 86 86 86 86 86 86 86 85 85 84 84 84 83 83 83 83 83 83 83 83 83 83 83 83 83 83 83 83 83 84 85
118 118 117 117 118 119 120 121 122 124 125 126 127 128 129 130 130 130 130 128 127 125 123 120 117 114 112 109 107 105 104 102 101 100 99 97 96 94 93 91 90 89 88 87 86 86 85 85 84 84 84 84 84 84 84 84 84 84 84 84 84 83 83 82 82 81 81 81 81 81 81 81 81 81 81 81 81 81 81 81 81 81 81 81 82 82
118 117 117 118 119 120 122 123 124 126 127 128 130 130 130 130 129 129 127 125 123 120 118 115 112 109 107 105 103 101 100 99 98 97 95 94 93 91 89 88 86 86 85 84 84 83 83 82 82 82 82 82 81 82 82 82 82 82 82 82 81 81 80 79 79 78 78 78 78 78 78 78 78 78 78 79 79 79 79 79 79 79 79 79 79 80
118 118 119 120 121 122 124 125 126 127 129 130 131 131 130 129 127 125 123 120 118 115 112 110 107 105 103 101 99 98 96 95 94 93 92 91 90 88 86 85 84 83 82 82 81 81 81 80 80 80 79 79 79 79 79 79 80 80 80 79 79 78 77 77 76 75 75 75 75 75 75 75 75 75 76 76 76 76 76 77 77 77 77 77 77 78
119 120 121 122 123 125 126 128 129 129 130 130 131 130 128 126 123 120 117 115 112 110 107 105 103 101 99 97 96 94 93 92 91 91 90 88 87 85 83 82 81 80 79 79 79 79 79 78 78 77 77 77 77 77 77 77 77 77 77 77 76 75 75 74 73 73 72 72 72 72 72 72 73 73 73 73 73 74 74 74 74 75 75 75 75 76
120 122 123 124 125 126 128 130 131 131 130 130 128 126 123 121 118 115 112 110 108 105 103 101 99 97 96 94 93 91 90 89 88 88 87 86 84 82 81 79 78 78 77 77 77 77 76 76 75 75 74 74 74 74 74 74 75 75 74 74 74 73 72 71 71 70 70 70 70 70 70 70 70 70 70 70 70 71 71 72 72 72 73 73 73 74
123 123 125 126 127 128 129 130 131 130 129 127 124 121 118 115 112 110 107 105 103 101 99 97 96 94 93 91 89 88 87 86 86 85 85 83 82 80 78 77 76 75 75 75 75 75 74 74 73 72 72 72 72 72 72 72 72 72 72 71 71 71 70 69 69 68 68 68 68 68 68 68 68 67 67 68 68 68 69 69 70 70 70 71 71 72
124 125 126 128 129 130 130 130 129 127 124 122 119 116 112 110 107 105 103 101 99 98 96 95 93 91 89 88 86 85 85 84 84 83 82 81 79 78 76 74 74 73 73 73 73 72 72 71 71 70 70 70 70 70 69 69 69 69 69 69 69 68 68 67 67 66 66 66 66 66 65 65 65 65 65 65 66 66 66 67 67 68 68 69 69 70
126 127 128 129 130 130 129 128 125 122 119 116 113 110 108 105 103 101 99 97 96 94 93 91 90 88 86 84 83 82 82 82 82 81 81 79 77 75 74 72 71 71 71 71 70 70 69 69 68 68 68 68 68 67 67 67 67 67 67 67 66 66 66 65 65 65 64 64 64 64 64 64 63 63 63 63 63 64 64 64 65 65 66 66 67 68
127 128 129 130 130 128 126 123 120 117 114 110 108 105 103 101 99 97 96 94 92 90 89 88 87 86 84 82 81 80 80 80 80 80 79 77 75 73 71 70 69 69 69 69 68 67 67 66 66 66 66 66 65 65 65 65 65 65 65 65 64 64 64 64 63 63 63 63 63 63 62 62 61 61 61 61 61 61 62 62 62 63 64 64 65 66
129 130 130 129 127 124 121 118 115 111 108 106 103 102 100 98 96 94 92 90 89 87 86 85 84 83 82 80 79 78 78 78 78 78 77 76 74 71 69 68 67 67 67 66 66 65 65 64 64 64 64 64 64 63 63 63 63 63 63 63 62 62 62 62 61 61 61 61 61 61 61 60 60 59 59 59 59 59 59 60 60 61 61 62 63 64
129 129 128 125 122 119 116 112 110 107 104 102 100 98 97 95 93 91 89 87 85 84 83 83 82 81 80 78 77 76 75 75 75 76 75 74 72 69 67 66 66 66 65 64 64 63 63 63 63 63 62 62 62 61 61 61 61 61 61 61 61 60 60 60 60 59 59 59 59 59 59 59 58 57 57 56 57 57 57 58 58 59 59 60 61 61
128 126 124 121 117 114 111 108 106 103 101 99 97 95 94 92 90 88 86 84 83 82 81 81 80 79 78 77 75 74 73 73 73 73 72 71 70 67 65 64 64 64 64 62 61 61 61 61 61 61 60 60 60 59 59 59 59 60 59 59 59 59 58 58 58 58 57 57 57 57 57 57 56 56 55 55 55 55 55 56 56 57 57 58 59 60
125 122 119 116 113 110 107 105 102 100 98 96 94 92 91 89 87 85 83 82 81 80 79 79 78 77 76 75 74 72 71 70 70 70 70 69 67 65 63 62 62 62 62 60 60 59 59 59 59 59 58 58 57 57 57 58 58 58 58 58 57 57 57 56 56 56 56 56 56 56 55 55 55 54 54 53 53 53 53 54 54 55 55 56 57 58
121 118 115 112 109 106 104 102 100 97 95 93 91 90 88 86 85 83 81 80 79 78 78 77 76 75 74 73 72 70 69 68 68 68 67 67 65 63 61 61 60 60 59 58 58 57 57 57 57 57 56 56 55 55 55 56 56 56 56 56 56 55 55 55 55 54 54 54 54 54 54 54 53 53 52 52 52 51 52 52 52 53 53 54 55 56
117 114 111 108 106 104 101 99 97 94 92 90 89 87 86 84 83 81 80 79 78 77 76 75 74 73 72 71 69 68 67 66 65 65 65 64 63 61 60 59 59 58 57 57 56 56 55 55 55 55 54 54 53 54 54 54 54 54 54 54 54 54 53 53 53 53 53 53 53 52 52 52 51 51 51 50 50 50 50 50 50 51 51 52 53 54
113 110 107 105 103 101 99 96 94 91 89 88 86 85 84 83 81 80 79 77 76 75 74 73 72 71 70 68 67 66 65 64 63 63 63 62 61 59 58 57 57 57 56 55 55 54 54 54 53 53 52 52 52 52 52 52 52 52 52 52 52 52 51 52 52 52 52 51 51 51 50 50 50 49 49 49 48 48 48 48 48 49 49 50 51 51
109 107 104 102 100 97 95 93 91 89 87 86 84 83 82 81 80 79 77 76 75 74 72 71 70 69 67 66 65 63 62 61 60 61 60 60 59 58 56 56 55 55 54 54 53 53 53 52 52 51 51 51 50 50 50 50 50 51 51 50 50 50 50 50 50 50 50 50 50 49 49 48 48 47 47 47 47 46 46 46 47 47 47 48 49 49
106 104 101 99 97 94 92 90 88 86 85 84 83 82 81 79 78 77 76 74 73 72 70 69 68 66 65 63 62 61 59 59 58 58 58 58 57 56 55 54 54 53 53 52 52 52 52 51 50 50 50 49 49 49 49 49 49 49 49 49 48 48 48 48 48 48 49 48 48 48 47 47 46 46 45 45 45 45 45 45 45 45 45 46 46 47
102 100 98 96 93 91 89 87 86 84 83 82 81 80 79 78 76 75 73 72 71 69 68 67 66 64 63 61 60 58 57 56 56 55 55 55 55 54 53 52 52 52 52 51 51 51 50 50 49 49 48 48 48 48 47 47 47 47 47 47 47 46 46 46 46 47 47 47 46 46 45 45 44 44 44 43 43 43 43 43 43 43 44 44 45 45
99 97 94 92 90 88 87 85 84 83 82 81 80 79 77 76 74 73 71 70 68 67 66 65 64 62 61 60 58 56 55 54 53 53 53 53 52 52 51 51 50 50 50 50 49 49 49 49 48 48 47 47 47 46 46 46 46 46 46 45 45 45 45 45 45 45 45 45 45 44 44 43 43 42 42 42 41 41 41 41 41 42 42 42 43 43
95 93 91 89 88 86 85 84 82 81 80 79 78 77 75 74 72 71 69 68 66 65 64 63 62 61 60 58 57 55 53 52 51 51 50 50 50 50 49 49 49 49 49 48 48 48 47 47 47 46 46 46 45 45 45 45 45 45 44 44 44 43 43 43 43 43 43 43 43 42 42 41 41 40 40 40 40 40 40 40 40 40 40 41 41 42
92 90 88 87 86 84 83 82 81 79 78 77 76 74 73 72 70 69 67 66 64 63 62 61 60 59 58 57 55 54 52 50 49 49 48 48 48 48 47 47 47 47 47 47 46 46 46 46 45 45 45 44 44 44 43 43 43 43 43 43 42 42 42 42 42 42 41 41 41 40 40 39 39 39 38 38 38 38 38 38 38 38 39 39 39 40
89 88 86 85 84 83 82 80 79 78 76 75 73 72 70 69 68 66 65 64 62 61 60 59 58 57 57 56 54 52 50 49 48 47 47 47 46 46 46 46 46 46 46 45 45 44 44 44 44 44 44 43 43 42 42 42 42 42 42 41 41 40 40 40 40 39 39 39 39 38 38 38 37 37 37 37 37 36 36 37 37 37 37 38 38 38
87 86 84 83 82 81 80 78 77 76 74 72 71 69 68 66 65 64 63 61 60 59 58 57 56 56 55 54 53 52 49 48 47 46 46 45 45 45 44 44 44 45 44 44 44 43 42 42 43 43 43 42 42 41 41 40 40 40 40 40 39 39 38 38 37 37 37 37 36 36 36 36 35 35 35 35 35 35 35 35 36 36 36 37 37 37
85 84 83 82 81 79 78 76 75 73 71 70 68 67 65 64 62 61 60 59 58 57 56 56 55 54 54 53 52 51 49 47 46 45 45 44 44 44 43 43 43 43 43 43 43 42 41 41 41 41 41 41 40 40 39 39 38 38 38 38 37 37 36 36 35 35 35 34 34 34 34 34 34 34 34 34 34 34 34 35 35 35 36 36 36 36
84 83 82 80 79 77 76 74 72 70 69 67 65 64 62 61 60 58 57 57 56 55 54 54 53 53 52 51 50 49 48 46 45 44 43 43 43 43 42 42 42 42 42 42 42 41 40 39 39 39 39 39 39 38 37 37 37 36 36 35 35 35 34 34 33 33 33 33 33 33 32 32 32 33 33 33 33 33 34 34 34 35 35 35 35 36
83 82 80 79 77 75 73 72 70 68 66 64 63 61 60 59 57 56 55 54 53 52 52 52 51 51 51 50 49 48 47 45 44 43 43 42 42 42 41 41 41 41 41 41 40 40 40 39 38 37 37 37 37 36 36 35 35 34 34 34 33 33 32 32 31 31 31 31 31 31 31 31 31 32 32 32 32 33 33 33 34 34 34 35 35 35
82 80 79 77 75 73 71 69 67 65 64 62 61 59 58 56 55 53 52 52 51 50 50 49 49 49 49 49 48 47 46 44 43 42 42 42 41 41 41 40 40 39 39 39 39 38 38 38 37 36 35 35 35 34 34 34 33 33 32 32 31 31 30 30 30 30 29 29 29 30 30 30 30 31 31 31 32 32 32 33 33 33 34 34 34 34
80 78 77 75 73 71 69 67 65 63 62 60 58 57 55 54 52 51 50 49 49 48 48 47 47 47 47 47 47 46 44 43 41 41 41 41 40 40 40 39 39 38 38 37 37 36 36 36 35 35 34 33 33 33 33 32 32 31 31 30 30 29 29 29 28 28 28 28 28 29 29 29 30 30 30 31 31 32 32 32 32 33 33 33 33 33
78 76 75 73 71 69 67 65 63 61 59 58 56 55 53 52 50 49 48 47 47 46 46 45 45 45 46 46 46 45 43 42 40 39 39 39 39 39 39 38 38 37 37 36 35 35 35 34 34 33 33 32 32 32 32 31 31 30 29 29 28 28 27 27 27 27 27 27 27 28 28 28 29 29 30 30 30 31 31 31 32 32 32 32 33 33
76 74 72 70 68 66 65 63 61 59 58 56 55 53 51 50 48 47 46 45 45 44 44 44 44 44 44 44 44 43 42 41 39 38 38 38 38 38 38 37 37 36 35 35 34 34 34 33 33 32 32 31 31 30 30 30 30 29 29 28 27 27 26 26 26 26 27 27 27 27 28 28 28 28 29 29 29 30 30 30 31 31 31 32 32 32
73 71 70 68 66 64 62 61 59 57 56 54 53 52 50 48 47 46 44 44 43 42 42 42 42 42 42 42 42 42 41 40 39 38 37 37 37 37 36 36 36 35 34 34 33 33 32 32 32 31 31 30 30 29 29 29 28 28 27 27 26 26 26 25 26 26 26 26 27 27 27 28 28 28 28 28 29 29 29 29 30 30 30 31 31 31
70 69 67 65 64 62 60 59 57 56 54 53 51 50 49 47 46 44 43 42 41 41 40 40 40 40 40 40 40 40 40 39 38 37 36 36 36 36 35 35 34 34 33 33 32 32 32 31 31 30 29 29 29 28 28 28 27 27 26 26 26 25 25 25 25 25 25 26 26 27 27 27 27 27 28 28 28 28 28 28 28 29 29 29 30 30
67 66 64 63 61 60 58 57 55 54 53 51 50 49 48 46 45 43 42 41 40 39 39 38 38 38 38 38 38 38 38 37 37 36 36 35 35 35 34 34 33 33 32 32 31 31 31 30 30 29 29 28 27 27 27 27 26 26 25 25 25 25 25 25 25 25 25 25 26 26 27 27 27 27 27 27 27 27 27 27 27 27 28 28 29 29
64 63 61 60 58 57 56 55 53 52 51 50 49 48 47 46 44 43 41 40 39 38 38 37 37 36 36 36 36 36 36 36 35 35 34 34 34 33 33 33 32 32 31 31 30 30 30 29 29 28 27 27 27 26 26 26 25 25 24 24 24 24 24 24 24 25 25 25 26 26 26 26 27 27 27 26 26 26 26 26 26 26 26 27 27 28
62 60 59 57 56 55 53 52 51 50 50 49 48 47 46 45 44 42 41 39 38 37 36 36 35 35 35 35 35 35 35 34 34 34 33 33 33 32 32 32 31 31 30 30 29 29 29 28 28 27 26 26 25 25 25 25 24 24 23 23 23 24 24 24 24 24 25 25 25 26 26 26 26 26 26 25 25 25 25 25 25 25 25 26 26 26
60 58 56 55 54 52 51 50 49 48 48 47 46 45 45 44 43 41 40 39 37 36 35 34 34 33 33 33 33 33 33 33 33 33 32 32 31 31 31 30 30 30 29 29 28 28 28 27 27 26 25 25 24 24 24 24 24 23 23 23 23 23 23 23 24 24 24 24 25 25 25 25 25 25 25 24 24 24 24 24 24 24 24 24 25 25
58 56 54 53 52 51 49 48 47 47 46 45 44 44 43 42 42 41 39 38 36 35 34 33 33 32 31 31 31 31 32 32 32 32 32 31 30 30 30 29 29 29 28 28 27 27 26 26 25 25 25 24 23 23 23 23 23 23 23 23 23 23 23 23 23 23 24 24 24 24 24 24 24 24 23 23 23 23 22 23 23 23 23 23 24 24
56 55 53 52 50 49 48 47 46 45 44 43 43 42 41 41 40 39 38 37 36 35 34 33 32 31 31 30 30 30 30 31 31 31 31 30 30 29 29 28 28 27 27 27 26 26 25 25 24 24 24 23 23 22 22 22 22 22 22 22 22 22 22 22 23 23 23 23 24 24 24 23 23 22 22 22 21 21 21 21 22 22 22 22 23 23
55 53 52 50 49 48 47 46 45 44 43 42 41 40 40 39 39 38 37 36 35 34 33 33 32 31 30 30 29 29 29 29 29 30 30 29 29 28 28 27 27 26 26 26 25 25 24 24 23 23 22 22 22 22 21 21 21 21 21 21 22 22 22 22 22 22 22 22 22 22 22 22 22 21 21 20 20 20 20 20 21 21 21 22 22 22
53 52 50 49 48 47 46 45 44 43 42 41 40 39 39 38 38 37 36 36 35 34 33 32 32 31 30 30 29 29 28 28 28 28 29 28 28 27 27 26 26 25 25 25 25 24 23 23 22 22 21 21 21 21 21 21 20 20 21 21 21 22 22 22 22 22 22 22 22 21 21 21 20 20 19 19 19 19 19 19 20 20 20 20 21 21
51 50 49 48 47 46 45 44 43 42 41 40 39 39 38 38 37 37 36 35 34 34 33 32 32 31 31 30 29 29 28 28 28 28 28 27 27 27 26 25 25 24 24 24 24 23 22 22 21 21 20 20 20 20 20 20 20 20 20 20 20 21 21 21 21 21 21 21 20 20 20 19 19 18 18 18 18 18 18 18 18 18 19 19 19 19
49 48 47 46 45 44 44 43 42 41 41 40 39 39 38 38 37 37 36 35 35 34 33 33 32 32 31 31 30 29 28 28 27 27 27 27 26 26 25 24 24 24 23 23 23 22 22 21 20 20 19 19 19 19 19 19 19 19 19 20 20 20 20 20 20 20 20 20 19 19 19 18 18 17 17 17 17 17 17 17 17 17 17 17 17 17
47 46 45 45 44 43 43 42 42 41 41 40 39 39 38 38 37 37 36 36 35 34 34 33 32 32 31 31 30 29 28 27 27 26 26 26 25 25 24 23 23 23 22 22 22 21 21 20 20 19 19 18 18 18 18 18 18 18 18 19 19 19 19 19 19 19 18 18 18 18 18 17 17 16 16 16 16 16 16 15 15 15 15 15 14 14
45 45 44 44 43 43 42 42 41 41 40 40 39 39 38 38 37 37 36 36 36 35 34 34 33 32 32 31 30 29 29 28 27 26 26 25 25 24 23 22 22 22 21 21 21 20 20 19 19 18 18 18 18 17 17 17 17 18 18 18 18 19 18 18 18 18 17 17 17 17 16 16 16 16 15 15 15 14 14 13 13 13 13 13 12 12
44 44 43 43 43 42 42 41 41 41 40 40 39 39 38 37 37 37 36 36 36 35 34 34 33 32 32 31 30 29 28 27 26 26 25 25 24 23 22 21 21 21 21 20 20 19 19 18 18 17 17 17 17 17 16 16 16 17 17 18 18 18 18 17 17 17 16 16 16 15 15 15 15 14 14 13 13 13 12 12 12 12 11 11 11 11
Wind_Direction
298 298 298 298 298 298 297 298 298 298 299 299 300 300 300 300 300 300 300 299 299 299 298 298 297 297 296 296 296 295 295 295 294 294 293 292 291 291 290 289 289 289 288 288 287 286 285 285 284 284 283 283 282 281 281 280 279 279 278 278 277 277 276 275 275 274 273 273 272 271 271 270 269 269 268 267 266 265 264 263 262 261 260 260 259 258
298 298 298 298 298 298 298 298 299 299 299 300 300 301 301 301 301 300 300 300 299 299 298 298 297 297 297 296 296 296 295 295 294 294 293 292 291 290 290 289 289 289 288 288 287 286 286 285 285 284 283 282 282 281 281 280 279 279 278 278 277 277 276 275 275 274 274 273 272 272 271 270 270 269 268 267 266 265 264 263 262 261 260 259 258 257
298 298 298 298 298 298 299 299 300 300 301 301 301 301 301 301 301 300 300 300 299 299 298 298 297 297 297 296 296 296 295 295 294 293 292 292 291 290 290 290 289 289 288 287 287 286 286 285 285 284 283 282 282 281 281 280 279 279 278 278 277 276 276 276 275 274 274 273 273 272 271 271 270 269 268 267 266 265 264 263 262 261 260 259 258 257
298 298 298 299 299 299 300 300 301 301 301 301 302 302 301 301 301 301 300 300 299 299 298 298 297 297 297 296 296 295 295 294 293 293 292 291 291 290 290 290 289 289 288 287 287 286 286 285 284 284 283 282 282 281 280 280 279 279 278 277 277 276 276 275 275 275 274 273 273 272 271 271 270 269 268 268 267 266 265 263 262 261 260 259 258 257
299 299 299 299 300 300 301 301 302 302 302 302 302 302 302 301 301 301 300 300 299 299 298 298 297 297 296 296 296 295 294 294 293 292 292 291 291 290 290 290 289 289 288 287 287 286 286 285 284 284 283 282 282 281 280 280 279 279 278 277 277 276 276 275 275 274 274 273 273 272 271 271 270 269 268 268 267 266 265 264 262 261 260 259 258 257
299 299 300 300 301 301 302 302 302 302 302 302 302 302 302 301 301 300 300 299 299 298 298 297 297 296 296 296 295 295 294 293 293 292 292 291 290 290 290 290 289 289 288 288 287 286 286 285 284 284 283 282 282 281 281 280 279 279 278 278 277 277 276 276 275 275 274 273 273 272 271 270 270 269 268 267 267 266 265 264 263 261 260 259 258 257
300 301 301 301 302 302 303 303 303 303 303 303 302 302 301 301 300 300 299 299 298 298 297 297 297 296 296 295 295 294 294 293 293 292 291 291 290 290 290 290 289 289 288 288 287 286 286 285 284 284 283 283 282 281 281 280 280 279 278 278 277 277 276 276 275 275 274 273 273 272 271 270 269 269 268 267 266 266 265 264 263 261 260 259 258 257
301 302 302 303 303 303 303 303 303 303 303 303 302 302 301 301 300 300 299 299 298 297 297 297 297 296 296 295 295 294 294 293 293 292 291 291 291 290 290 290 290 289 289 288 287 287 286 285 284 284 283 283 282 282 281 281 280 279 279 278 278 278 277 277 276 275 274 274 273 272 271 270 269 268 268 267 266 265 264 264 263 261 260 259 258 257
302 303 303 303 304 304 304 304 303 303 303 302 302 301 301 301 300 300 299 298 298 297 297 297 297 296 296 295 295 294 294 293 293 292 291 291 291 291 290 290 290 290 289 288 287 287 286 285 285 284 284 283 283 282 281 281 280 280 279 279 279 278 278 277 276 276 275 274 273 272 271 270 269 268 267 266 266 265 264 263 262 261 260 259 258 257
303 303 304 304 304 304 304 304 303 303 303 302 301 301 301 300 300 299 299 298 298 297 297 297 297 296 295 295 295 294 294 293 293 292 291 291 291 291 291 291 291 290 289 288 288 287 286 286 285 285 284 283 283 282 281 281 281 280 280 280 279 279 278 278 277 276 275 274 273 272 271 270 269 268 267 266 265 264 264 263 262 261 260 259 258 257
304 304 304 305 305 304 304 304 303 303 302 302 301 301 300 300 300 299 299 298 298 298 297 297 297 296 295 295 295 295 294 293 293 292 292 291 291 291 291 291 291 290 289 289 288 287 286 286 286 285 284 283 283 282 282 281 281 281 281 280 280 279 279 278 277 276 275 274 273 272 271 270 269 268 267 266 265 264 263 262 261 261 260 259 258 256
305 305 305 305 305 304 304 303 303 302 302 302 301 301 301 300 300 299 299 298 298 298 298 297 296 296 295 295 295 295 294 294 293 293 292 292 292 292 292 292 291 290 289 288 288 287 287 286 286 285 284 284 283 282 282 282 282 281 281 281 280 280 279 278 277 277 276 275 273 272 271 270 269 268 267 266 265 264 263 262 261 260 259 258 257 256
305 305 305 305 305 304 304 303 303 302 302 302 302 301 301 300 300 299 299 299 298 298 298 297 296 296 296 296 295 295 295 294 293 293 293 292 292 292 292 292 291 290 289 288 287 287 287 286 286 285 284 284 283 283 283 282 282 282 281 281 280 280 279 279 278 277 276 275 274 273 272 271 270 268 267 266 265 264 263 262 261 260 259 258 257 256
306 306 306 305 305 304 304 303 303 303 302 302 302 301 301 300 300 299 299 299 298 298 298 297 296 296 296 296 296 296 295 295 294 294 293 293 293 293 293 292 291 290 289 288 288 287 287 286 286 285 284 284 284 283 283 283 282 282 281 281 280 280 279 279 278 277 276 275 274 273 272 271 270 269 268 267 266 265 263 262 261 260 259 258 257 256
306 306 305 305 305 304 304 303 303 303 303 302 302 301 301 300 300 299 299 299 299 298 298 297 297 297 296 296 296 296 295 295 294 294 294 293 293 293 293 292 291 290 289 288 288 288 287 287 286 285 285 285 284 284 283 283 282 282 281 281 280 280 279 279 278 277 277 276 275 274 273 272 271 270 269 267 266 265 264 263 261 260 259 258 256 255
306 306 305 305 305 304 304 304 304 303 303 303 302 302 301 300 300 300 299 299 299 298 298 298 297 297 297 297 297 296 296 295 295 294 294 294 293 293 293 292 291 290 289 289 289 288 288 287 286 286 285 285 285 284 284 283 282 282 281 281 280 280 279 279 278 278 277 276 275 275 274 273 272 270 269 268 266 265 264 263 261 260 259 258 256 255
306 306 306 305 305 305 305 304 304 304 303 303 302 302 301 301 300 300 300 300 299 299 298 298 298 298 298 297 297 296 296 296 295 294 294 294 294 294 293 293 291 291 290 290 289 289 288 287 287 286 286 286 285 285 284 283 283 282 282 281 281 280 280 279 278 278 277 276 275 275 274 273 272 271 269 268 266 265 264 263 261 260 259 258 256 255
307 306 306 306 306 305 305 305 304 304 303 303 302 302 301 301 301 301 300 300 300 300 299 299 298 298 298 298 297 297 296 296 295 294 294 294 294 294 293 293 292 291 291 290 290 289 288 287 287 287 286 286 285 285 284 284 283 283 282 282 281 281 280 280 279 278 277 276 276 275 274 273 272 271 270 268 267 265 264 263 261 260 259 258 256 255
307 307 307 306 306 306 305 305 304 304 304 303 303 302 302 302 301 301 301 301 301 300 300 299 299 299 298 298 298 297 296 296 295 294 294 294 294 294 293 293 292 291 291 290 290 289 288 288 287 287 287 286 286 285 285 284 284 283 283 283 282 282 281 280 279 278 278 277 276 275 274 273 272 271 270 269 267 266 264 263 262 260 259 258 257 255
308 307 307 307 306 306 305 305 305 304 304 304 303 303 302 302 302 302 302 301 301 301 300 300 299 299 299 298 298 297 297 296 295 295 294 294 294 294 293 293 292 291 291 290 290 289 288 288 287 287 287 286 286 285 285 284 284 283 283 283 282 282 281 281 280 279 278 277 276 275 275 274 273 272 271 270 268 267 265 264 262 261 260 258 257 256
308 308 307 307 306 306 306 305 305 305 304 304 304 303 303 303 303 303 302 302 302 301 301 300 300 299 299 298 298 297 297 296 295 295 294 294 294 294 293 293 292 291 291 291 290 289 289 288 288 288 287 287 286 286 285 284 284 283 283 283 282 282 281 280 280 279 278 277 277 276 275 274 273 273 272 270 269 268 266 265 263 262 260 259 258 257
308 308 307 307 306 306 306 305 305 305 305 304 304 304 304 304 303 303 303 302 302 301 301 300 300 299 299 298 298 297 297 296 295 295 295 294 294 294 293 293 292 292 291 291 290 290 289 289 289 288 288 287 287 286 286 285 284 284 283 283 282 282 281 280 279 279 278 277 277 276 276 275 274 273 272 271 270 269 267 266 264 263 261 260 258 257
308 307 307 307 306 306 306 306 305 305 305 305 305 304 304 304 304 303 303 303 302 301 301 300 299 299 298 298 297 297 297 296 295 295 295 294 294 294 294 293 292 292 291 291 291 290 290 289 289 289 288 288 287 287 286 285 285 284 284 283 283 282 281 280 279 279 278 278 277 277 276 276 275 274 273 272 271 269 268 267 265 263 262 260 259 258
308 307 307 307 307 306 306 306 306 306 305 305 305 305 304 304 304 303 303 302 302 301 301 300 299 299 298 298 297 297 296 296 295 295 294 294 294 294 293 293 292 292 291 291 291 291 290 290 290 289 289 288 288 287 286 286 285 285 284 284 283 282 281 280 280 279 278 278 278 277 277 276 275 275 274 273 271 270 269 267 266 264 263 261 260 258
308 307 307 307 307 307 307 306 306 306 306 306 305 305 305 304 304 303 303 302 302 301 301 300 299 299 298 298 297 297 296 296 295 294 294 294 293 293 293 292 292 291 291 291 291 291 290 290 290 289 289 288 288 287 287 286 286 285 284 284 283 283 282 281 280 279 279 278 278 278 277 277 276 275 274 273 272 271 270 268 267 265 264 262 261 259
308 308 307 307 307 307 307 307 307 306 306 306 306 305 305 304 304 304 303 302 302 301 301 300 299 299 298 298 297 297 296 296 295 294 293 293 292 292 292 291 291 291 290 290 290 290 290 290 289 289 289 288 288 287 287 286 286 285 285 284 284 283 282 281 280 279 279 279 278 278 278 277 276 276 275 274 273 272 270 269 268 267 265 264 262 261
308 308 308 308 308 307 307 307 307 307 306 306 306 305 305 304 304 303 303 302 302 301 301 300 299 299 298 298 297 297 296 296 295 294 293 293 292 291 291 291 290 290 290 290 290 290 290 290 289 289 288 288 288 287 287 287 286 286 285 285 284 283 282 281 280 280 279 279 279 278 278 277 277 276 275 274 273 272 271 270 269 267 266 265 263 262
309 308 308 308 308 308 308 307 307 307 307 306 306 305 305 304 304 303 303 302 302 301 301 300 299 299 298 298 297 297 296 296 295 294 294 293 292 291 291 291 291 290 290 289 289 290 290 290 290 289 289 288 288 288 287 287 286 286 285 285 284 283 282 281 281 280 280 279 279 279 279 278 277 277 276 275 274 273 272 270 269 268 266 265 264 262
309 309 309 308 308 308 308 308 307 307 306 306 305 305 304 304 303 303 303 302 302 301 301 300 299 299 298 298 297 297 297 296 296 295 294 294 293 292 292 292 291 291 290 290 289 289 289 290 290 289 289 289 288 288 287 287 286 286 286 285 284 283 282 282 281 280 280 280 280 280 279 279 278 278 277 276 274 273 272 271 269 268 266 265 263 262
309 309 309 309 308 308 308 307 307 307 306 306 305 305 304 304 303 303 303 302 302 301 300 300 299 298 298 298 297 297 297 297 296 296 295 295 294 293 293 292 292 291 291 290 290 290 289 289 289 289 289 289 289 288 288 287 287 286 286 285 284 283 282 282 281 281 281 281 280 280 280 280 279 278 277 276 275 274 273 271 270 268 267 265 263 262
310 309 309 309 308 308 308 307 307 306 306 305 305 304 304 304 303 303 302 302 301 301 300 299 299 298 298 298 298 298 298 297 297 297 296 296 295 294 294 293 292 292 291 291 291 291 290 289 289 289 289 289 289 288 288 287 287 286 286 285 284 283 283 283 282 282 281 281 281 281 281 280 280 279 278 277 275 274 273 271 270 269 267 266 264 263
310 309 309 309 308 308 308 307 307 306 306 305 305 304 304 303 303 303 302 302 301 300 300 299 298 298 297 297 297 298 298 298 298 298 297 296 296 295 294 294 293 292 292 292 292 292 292 291 290 289 289 289 289 288 288 288 287 287 286 285 285 284 284 283 283 283 283 282 282 282 281 281 280 279 278 277 276 275 273 272 271 270 268 267 265 264
310 309 309 309 308 308 307 307 306 306 305 305 304 304 303 303 303 302 302 301 301 300 299 299 298 298 297 297 297 297 298 299 299 299 298 297 296 296 295 294 293 293 293 293 292 292 292 292 291 290 290 290 290 289 289 288 288 288 287 286 286 285 285 285 284 284 284 283 283 282 281 281 280 279 278 277 276 275 274 273 272 271 269 268 267 265
309 309 309 308 308 308 307 307 306 306 305 305 304 304 303 303 303 302 301 301 300 299 299 298 298 297 297 297 297 298 298 299 299 299 298 298 297 296 296 295 294 294 293 293 293 292 292 292 292 292 291 291 291 291 291 290 289 289 288 288 287 287 287 286 286 285 284 284 283 282 281 280 280 279 278 277 276 276 275 274 273 272 271 270 268 267
309 309 308 308 308 307 307 306 306 305 305 305 304 304 303 303 302 302 301 300 299 299 298 298 298 297 297 297 297 298 298 299 299 299 298 297 297 296 296 295 295 295 294 294 294 293 293 293 292 293 292 292 292 292 292 292 291 291 290 289 289 288 288 287 286 286 285 284 283 282 281 280 279 279 278 277 277 276 275 275 274 273 272 271 270 268
309 309 308 308 307 307 307 306 306 305 305 304 304 303 303 303 302 301 301 300 299 299 298 298 297 297 297 297 298 298 299 299 299 299 298 297 296 296 296 296 296 296 295 295 294 294 294 294 293 293 294 294 293 293 293 293 293 293 292 291 290 290 289 288 287 287 286 285 284 283 282 281 280 279 278 278 277 276 275 275 274 273 272 272 271 269
309 308 308 308 307 307 307 306 306 305 305 304 304 303 303 302 302 301 300 300 299 298 298 297 297 297 297 298 298 298 299 299 299 299 298 297 297 297 297 297 297 297 296 296 295 295 295 294 294 294 295 295 295 295 295 295 294 294 294 293 292 292 291 290 289 288 287 286 285 285 284 283 282 281 279 278 277 276 275 274 273 273 272 271 270 269
308 308 308 307 307 307 307 306 306 305 305 304 304 303 303 302 301 301 300 299 299 298 298 297 297 297 297 297 298 298 299 299 299 299 298 298 298 297 298 298 297 297 297 297 297 296 296 295 295 295 296 296 296 297 296 296 296 295 295 295 294 293 292 291 290 289 288 287 287 286 285 284 283 282 280 279 278 276 275 274 273 272 272 270 270 269
308 308 307 307 307 307 306 306 306 305 305 304 304 303 303 302 302 301 300 299 299 298 297 297 296 296 296 296 297 297 298 298 299 299 299 299 298 298 298 298 298 298 298 298 298 297 297 297 297 297 297 297 297 297 297 297 297 296 296 296 295 294 293 292 291 290 289 289 288 287 286 285 284 283 281 280 279 277 276 275 274 273 271 270 269 268
308 307 307 307 307 306 306 306 305 305 305 304 304 303 303 302 302 301 300 300 299 298 297 297 296 296 296 296 296 297 297 298 298 298 299 299 299 299 299 299 299 299 298 298 298 298 298 298 298 298 298 298 299 299 298 298 297 297 297 297 296 295 294 293 292 291 290 290 289 288 287 286 284 283 282 281 280 279 277 276 275 274 272 271 269 268
307 307 307 307 306 306 306 306 305 305 304 304 303 303 303 302 302 301 301 300 299 298 298 297 296 296 296 296 296 296 297 297 298 298 298 299 299 299 299 299 299 299 299 299 298 298 298 298 298 299 299 299 299 299 299 299 298 298 297 297 296 295 294 293 292 291 291 290 289 288 287 286 285 283 283 282 281 280 279 278 276 275 273 272 271 269
307 307 307 307 306 306 306 305 305 304 304 304 303 303 302 302 301 301 301 300 299 298 297 296 295 294 294 295 295 296 296 297 297 298 298 298 299 299 299 299 299 299 299 299 299 298 299 299 299 299 299 299 299 299 299 299 298 298 297 296 295 294 293 292 292 291 291 290 290 288 287 286 285 284 283 282 282 281 280 279 278 277 276 274 273 271
308 307 307 307 306 306 306 305 305 304 304 303 303 302 302 302 301 301 300 300 299 298 297 295 294 293 293 293 293 294 295 296 297 298 298 298 299 299 299 299 299 299 299 299 299 299 299 299 299 300 300 300 300 300 299 299 298 297 296 295 294 293 292 292 291 291 291 290 290 289 288 286 285 285 284 283 283 282 282 281 280 279 278 277 275 274
308 308 308 307 307 306 306 305 305 304 303 303 302 302 302 301 301 300 300 299 298 297 296 295 294 292 292 291 292 293 294 295 296 297 298 298 298 299 299 299 299 299 299 299 299 299 298 299 299 299 300 300 300 300 300 299 298 297 296 295 294 293 292 291 291 290 290 290 289 288 288 287 286 286 285 285 285 284 283 283 282 281 280 279 277 275
309 308 308 308 307 307 306 306 305 304 304 303 302 302 301 301 300 299 299 298 297 296 295 294 293 292 291 291 291 291 292 294 295 296 297 298 298 299 299 299 299 299 299 299 299 299 299 299 299 299 300 300 300 300 300 299 298 297 296 295 294 293 292 292 291 290 290 289 288 288 288 288 288 287 287 287 287 286 286 285 284 283 281 280 278 276
309 309 308 308 308 307 307 306 305 305 304 303 303 302 301 300 299 299 298 297 296 296 295 294 293 292 291 290 290 291 291 292 294 295 296 297 298 298 299 299 299 299 300 299 299 299 299 299 299 299 300 300 301 301 300 299 298 297 296 295 294 293 293 292 292 291 291 290 289 289 289 289 289 289 289 290 289 289 288 287 285 284 282 280 278 275
309 308 308 308 307 307 307 306 305 305 304 303 302 302 301 300 299 298 297 296 295 295 294 293 292 291 291 290 290 290 290 291 292 293 295 296 297 298 298 299 300 300 300 300 299 299 299 299 299 299 300 300 301 300 300 299 298 297 296 296 295 293 293 292 292 293 292 292 291 291 291 291 291 291 292 292 292 291 290 288 286 284 282 280 277 274
308 308 308 308 307 307 306 306 305 304 304 303 302 301 300 299 298 297 296 296 295 294 293 292 292 291 290 290 290 290 290 290 291 292 293 294 295 297 298 299 300 300 300 300 299 299 299 299 299 300 300 300 300 300 300 299 298 298 297 296 295 294 293 293 293 294 294 294 294 294 294 294 294 294 294 295 294 293 291 289 287 285 282 279 276 273
308 308 308 307 307 306 306 305 304 303 303 302 301 300 299 298 297 297 296 295 294 293 293 292 291 290 290 290 290 290 290 290 290 291 292 293 294 296 297 299 299 300 300 299 299 299 299 299 299 300 300 300 300 300 300 299 299 299 298 298 296 295 294 294 294 295 295 295 296 296 296 297 297 297 297 296 296 294 293 291 288 286 284 281 278 274
308 308 307 307 307 306 305 304 303 303 302 301 300 299 298 297 296 296 295 294 294 293 292 292 291 290 290 289 290 289 289 289 290 290 291 292 293 295 297 298 299 299 299 299 299 299 299 299 300 300 300 300 300 300 300 299 299 299 299 298 297 296 295 295 295 296 297 297 297 298 299 299 300 299 299 299 298 297 295 294 292 290 288 284 281 277
308 308 307 307 306 306 305 304 303 302 301 300 299 298 297 296 295 295 294 293 293 292 292 291 291 290 290 289 289 289 289 289 289 289 290 291 292 294 296 297 299 299 298 298 298 299 299 300 300 301 301 301 300 300 300 300 300 300 300 299 298 297 296 297 297 298 299 299 300 301 301 302 302 302 302 302 302 302 300 299 299 296 294 290 285 280
Height
10381 10376 10371 10366 10362 10356 10350 10344 10341 10338 10333 10326 10322 10319 10316 10313 10308 10303 10298 10294 10290 10285 10279 10274 10268 10263 10259 10255 10251 10246 10242 10238 10235 10232 10228 10224 10220 10216 10212 10210 10207 10205 10204 10201 10198 10195 10192 10190 10188 10185 10183 10181 10178 10176 10174 10172 10170 10169 10168 10166 10165 10165 10164 10164 10164 10164 10165 10165 10165 10165 10165 10165 10166 10166 10168 10168 10170 10171 10173 10175 10176 10178 10179 10181 10183 10185
10371 10365 10360 10356 10352 10347 10340 10334 10330 10327 10323 10319 10314 10309 10305 10301 10297 10291 10286 10281 10276 10271 10266 10261 10256 10251 10246 10241 10238 10234 10230 10226 10223 10220 10216 10211 10208 10204 10201 10199 10197 10196 10193 10190 10187 10184 10181 10180 10178 10176 10173 10170 10168 10166 10164 10162 10160 10159 10157 10156 10155 10154 10154 10153 10153 10154 10154 10154 10155 10155 10155 10155 10155 10156 10156 10158 10158 10160 10161 10163 10165 10166 10168 10170 10171 10174
10361 10355 10349 10345 10341 10337 10331 10326 10321 10316 10313 10309 10305 10300 10295 10290 10285 10280 10274 10269 10263 10258 10252 10247 10243 10239 10235 10230 10226 10222 10219 10215 10211 10208 10203 10200 10196 10193 10191 10189 10188 10186 10183 10180 10176 10174 10172 10170 10168 10165 10163 10160 10158 10156 10154 10152 10150 10149 10147 10146 10145 10144 10144 10143 10143 10144 10144 10144 10144 10145 10145 10145 10145 10145 10146 10147 10148 10149 10150 10152 10153 10155 10157 10159 10160 10162
10351 10346 10340 10335 10331 10327 10322 10318 10313 10308 10303 10298 10295 10290 10285 10280 10273 10267 10262 10257 10251 10246 10240 10235 10230 10227 10223 10219 10215 10211 10208 10204 10200 10196 10192 10189 10186 10183 10181 10180 10178 10176 10173 10170 10167 10165 10163 10161 10158 10156 10153 10151 10148 10146 10145 10143 10141 10139 10138 10136 10135 10135 10135 10134 10134 10135 10135 10135 10135 10135 10135 10135 10136 10136 10137 10138 10138 10138 10140 10141 10143 10145 10147 10149 10150 10151
10341 10337 10331 10326 10321 10316 10311 10308 10303 10298 10293 10288 10283 10279 10275 10269 10262 10255 10250 10245 10240 10234 10228 10223 10219 10216 10213 10208 10205 10201 10198 10193 10190 10186 10182 10178 10176 10173 10172 10171 10169 10166 10163 10161 10158 10156 10154 10151 10149 10146 10144 10141 10139 10137 10135 10133 10131 10130 10128 10127 10126 10126 10126 10125 10125 10126 10126 10126 10126 10126 10126 10126 10126 10126 10128 10128 10128 10130 10131 10132 10133 10135 10136 10138 10140 10141
10330 10326 10323 10318 10313 10307 10302 10298 10293 10288 10283 10277 10271 10266 10263 10258 10251 10245 10238 10233 10227 10221 10217 10213 10209 10205 10202 10198 10195 10191 10187 10183 10179 10175 10172 10169 10166 10165 10163 10162 10160 10157 10155 10152 10150 10147 10145 10142 10140 10138 10135 10133 10130 10128 10126 10124 10122 10120 10119 10118 10117 10117 10117 10117 10117 10117 10117 10117 10117 10117 10117 10117 10116 10117 10118 10118 10118 10120 10121 10122 10123 10125 10126 10128 10130 10131
10320 10316 10312 10309 10305 10300 10293 10287 10283 10278 10275 10268 10260 10253 10248 10245 10240 10234 10228 10223 10216 10210 10206 10203 10199 10195 10192 10188 10185 10181 10178 10173 10170 10166 10162 10159 10157 10156 10155 10153 10151 10148 10146 10143 10141 10138 10136 10133 10131 10129 10126 10124 10121 10120 10117 10115 10113 10111 10110 10109 10108 10108 10108 10108 10108 10109 10109 10109 10108 10108 10108 10108 10108 10108 10108 10108 10109 10110 10111 10111 10113 10115 10116 10118 10120 10121
10311 10306 10301 10298 10293 10290 10284 10277 10270 10266 10263 10259 10252 10243 10236 10231 10226 10221 10216 10211 10206 10201 10196 10193 10189 10185 10182 10179 10175 10172 10168 10165 10160 10156 10153 10150 10148 10147 10146 10145 10143 10140 10138 10135 10131 10129 10126 10125 10122 10120 10118 10116 10113 10111 10108 10106 10105 10103 10101 10100 10100 10100 10100 10100 10100 10100 10100 10100 10100 10100 10100 10100 10100 10100 10100 10100 10101 10101 10102 10103 10104 10105 10106 10108 10110 10112
10302 10298 10293 10288 10283 10279 10275 10268 10260 10253 10249 10245 10240 10233 10227 10221 10216 10210 10204 10200 10195 10191 10187 10183 10180 10176 10172 10169 10166 10163 10159 10155 10151 10147 10144 10141 10140 10139 10138 10136 10135 10132 10129 10126 10123 10120 10118 10116 10114 10111 10110 10107 10105 10103 10100 10098 10096 10095 10093 10092 10092 10091 10091 10091 10091 10091 10091 10091 10091 10091 10091 10091 10091 10091 10091 10092 10093 10093 10093 10095 10095 10096 10098 10100 10101 10103
10292 10288 10284 10279 10273 10268 10263 10258 10251 10243 10237 10232 10227 10221 10216 10212 10206 10201 10195 10189 10184 10180 10177 10174 10171 10166 10163 10160 10156 10154 10150 10146 10142 10138 10135 10133 10132 10131 10130 10128 10126 10124 10121 10118 10115 10112 10110 10108 10106 10104 10101 10100 10097 10095 10093 10090 10088 10087 10086 10085 10084 10084 10083 10083 10083 10083 10083 10083 10083 10082 10082 10083 10083 10083 10083 10084 10085 10085 10086 10086 10087 10088 10090 10091 10092 10094
10283 10278 10273 10268 10262 10256 10251 10246 10240 10233 10227 10221 10215 10210 10205 10200 10196 10192 10186 10180 10175 10171 10167 10164 10161 10158 10154 10151 10148 10145 10141 10137 10133 10130 10127 10125 10124 10123 10122 10121 10118 10116 10113 10110 10106 10103 10101 10100 10098 10096 10093 10091 10090 10087 10085 10083 10081 10080 10078 10078 10076 10076 10075 10075 10075 10075 10075 10075 10074 10074 10074 10074 10075 10075 10076 10076 10076 10077 10078 10078 10079 10080 10081 10083 10084 10086
10273 10268 10263 10258 10252 10246 10240 10233 10228 10221 10216 10211 10205 10200 10193 10188 10185 10181 10177 10172 10167 10163 10158 10154 10150 10148 10146 10143 10140 10136 10133 10128 10125 10121 10118 10117 10116 10116 10115 10113 10111 10108 10105 10101 10098 10096 10094 10092 10090 10088 10086 10084 10082 10080 10078 10077 10075 10073 10072 10071 10070 10068 10068 10067 10067 10066 10066 10066 10066 10066 10066 10066 10067 10067 10068 10068 10069 10070 10070 10071 10071 10072 10073 10075 10076 10078
10264 10259 10253 10248 10241 10235 10229 10223 10216 10210 10205 10200 10195 10190 10184 10178 10174 10171 10167 10163 10159 10155 10150 10146 10141 10138 10136 10135 10133 10129 10125 10120 10116 10113 10111 10109 10109 10108 10108 10106 10103 10100 10096 10094 10091 10089 10088 10085 10083 10081 10078 10077 10075 10074 10072 10071 10069 10067 10065 10064 10063 10061 10061 10060 10060 10059 10058 10058 10058 10058 10058 10059 10059 10060 10060 10061 10061 10062 10063 10063 10064 10065 10066 10067 10068 10070
10254 10249 10243 10236 10230 10223 10217 10211 10206 10200 10194 10189 10185 10180 10175 10170 10165 10161 10158 10155 10150 10146 10142 10138 10133 10130 10128 10127 10125 10121 10117 10113 10108 10105 10103 10101 10101 10101 10101 10098 10095 10092 10089 10086 10085 10083 10081 10079 10076 10074 10072 10070 10069 10068 10066 10065 10063 10061 10059 10058 10056 10055 10054 10053 10053 10052 10051 10051 10051 10051 10051 10051 10052 10053 10053 10054 10055 10055 10056 10056 10057 10058 10059 10060 10061 10063
10243 10238 10231 10225 10218 10211 10205 10200 10195 10190 10184 10180 10175 10170 10165 10160 10156 10153 10150 10146 10142 10138 10134 10130 10125 10122 10120 10119 10117 10115 10110 10105 10101 10097 10095 10093 10093 10094 10093 10091 10088 10085 10082 10080 10078 10076 10074 10072 10070 10067 10066 10064 10063 10061 10060 10058 10056 10055 10053 10052 10051 10050 10048 10047 10046 10045 10045 10045 10044 10044 10044 10045 10045 10046 10047 10048 10048 10048 10049 10050 10050 10051 10052 10053 10054 10055
10231 10226 10220 10213 10206 10200 10195 10189 10184 10179 10175 10170 10165 10160 10156 10151 10147 10144 10141 10138 10134 10130 10126 10122 10118 10115 10112 10111 10110 10107 10103 10099 10095 10090 10088 10086 10086 10086 10086 10084 10080 10077 10075 10073 10072 10070 10068 10065 10063 10061 10060 10058 10057 10055 10054 10052 10050 10049 10047 10046 10045 10044 10043 10042 10041 10040 10039 10038 10038 10038 10038 10038 10038 10040 10040 10041 10041 10041 10042 10043 10043 10044 10045 10046 10047 10048
10221 10214 10208 10201 10196 10190 10184 10178 10173 10169 10165 10160 10156 10151 10146 10143 10139 10136 10133 10130 10126 10122 10118 10115 10111 10108 10105 10103 10101 10100 10097 10093 10088 10084 10081 10079 10078 10079 10079 10076 10073 10070 10068 10067 10066 10064 10061 10059 10057 10055 10054 10053 10051 10050 10048 10046 10045 10043 10041 10041 10040 10038 10038 10036 10035 10035 10033 10033 10032 10031 10031 10031 10032 10033 10033 10034 10035 10035 10036 10036 10036 10038 10038 10040 10041 10042
10209 10203 10196 10191 10185 10179 10174 10168 10164 10160 10155 10151 10146 10141 10137 10133 10131 10128 10125 10122 10118 10115 10111 10107 10104 10101 10098 10096 10093 10091 10090 10086 10083 10078 10075 10073 10072 10073 10072 10070 10067 10065 10063 10061 10060 10058 10056 10053 10051 10050 10048 10047 10046 10044 10042 10041 10039 10038 10036 10035 10034 10033 10032 10031 10030 10029 10028 10027 10026 10026 10026 10026 10026 10026 10027 10028 10028 10029 10030 10030 10031 10031 10032 10033 10034 10035
10197 10191 10185 10180 10175 10170 10164 10159 10155 10150 10146 10142 10138 10133 10128 10125 10122 10120 10116 10114 10111 10107 10103 10100 10096 10094 10092 10089 10086 10085 10083 10080 10076 10073 10070 10068 10066 10066 10066 10064 10061 10059 10057 10056 10055 10052 10050 10048 10046 10045 10043 10042 10041 10039 10037 10035 10034 10032 10031 10030 10029 10028 10027 10026 10025 10024 10023 10021 10021 10020 10020 10020 10020 10020 10021 10021 10022 10023 10023 10024 10025 10025 10026 10027 10028 10029
10186 10180 10175 10170 10166 10160 10155 10150 10145 10141 10138 10133 10129 10125 10121 10117 10114 10111 10109 10106 10103 10100 10096 10093 10090 10087 10085 10083 10080 10078 10076 10073 10070 10066 10064 10062 10061 10061 10060 10058 10055 10053 10052 10051 10049 10047 10045 10043 10041 10040 10038 10037 10035 10034 10032 10031 10029 10028 10026 10025 10024 10023 10022 10021 10020 10018 10018 10016 10016 10015 10015 10015 10015 10015 10015 10016 10016 10017 10018 10018 10019 10020 10021 10021 10022 10023
10177 10171 10165 10161 10156 10151 10146 10141 10136 10133 10130 10125 10121 10117 10113 10110 10106 10104 10101 10098 10095 10092 10090 10086 10083 10081 10078 10076 10074 10071 10070 10067 10064 10061 10058 10056 10055 10055 10055 10053 10050 10048 10046 10045 10043 10041 10040 10038 10036 10035 10033 10032 10031 10029 10028 10026 10025 10023 10021 10021 10020 10018 10017 10016 10015 10014 10013 10011 10011 10011 10010 10010 10010 10010 10010 10011 10011 10012 10013 10013 10014 10015 10015 10016 10017 10018
10168 10162 10156 10151 10147 10143 10138 10133 10129 10125 10121 10118 10113 10110 10106 10103 10100 10096 10093 10091 10088 10085 10083 10080 10077 10075 10073 10071 10068 10066 10064 10061 10059 10056 10053 10051 10050 10049 10048 10047 10045 10043 10041 10040 10038 10036 10034 10033 10031 10030 10028 10027 10026 10024 10023 10021 10020 10018 10017 10016 10015 10014 10013 10011 10010 10009 10008 10007 10006 10006 10006 10005 10005 10005 10006 10006 10006 10007 10008 10008 10008 10010 10010 10011 10011 10013
10160 10155 10149 10144 10139 10135 10130 10126 10122 10118 10114 10110 10106 10103 10100 10096 10093 10090 10087 10084 10081 10079 10076 10073 10071 10069 10067 10065 10063 10061 10059 10056 10054 10051 10048 10046 10045 10043 10043 10041 10039 10037 10036 10035 10033 10030 10029 10028 10026 10025 10024 10022 10021 10020 10018 10016 10015 10014 10013 10011 10011 10010 10008 10007 10006 10005 10004 10003 10002 10002 10001 10001 10001 10001 10001 10001 10001 10002 10003 10003 10003 10004 10005 10006 10006 10007
10152 10146 10141 10136 10131 10127 10123 10119 10115 10111 10107 10103 10100 10096 10093 10090 10086 10083 10080 10078 10075 10072 10070 10067 10065 10063 10061 10060 10058 10056 10055 10052 10050 10046 10044 10042 10040 10038 10038 10036 10034 10032 10031 10030 10028 10026 10024 10023 10021 10020 10019 10018 10016 10015 10013 10012 10011 10010 10008 10007 10006 10005 10004 10003 10001 10001 10000 9999 9998 9998 9998 9997 9997 9997 9997 9997 9997 9997 9998 9998 9998 9999 10000 10001 10001 10002
10145 10139 10134 10129 10124 10120 10116 10111 10108 10104 10101 10096 10093 10089 10085 10083 10080 10077 10075 10071 10069 10066 10063 10061 10059 10057 10055 10055 10053 10052 10050 10048 10045 10043 10040 10038 10036 10035 10033 10031 10030 10028 10026 10025 10023 10021 10020 10018 10017 10016 10015 10013 10011 10010 10009 10008 10006 10005 10004 10003 10002 10001 10000 9999 9998 9996 9996 9995 9994 9994 9993 9993 9993 9993 9993 9993 9993 9993 9993 9993 9994 9995 9995 9996 9996 9997
10137 10131 10126 10121 10117 10113 10109 10105 10101 10098 10094 10090 10086 10083 10079 10076 10073 10071 10068 10066 10063 10061 10058 10055 10053 10051 10050 10049 10048 10046 10045 10043 10041 10039 10036 10035 10032 10030 10029 10027 10026 10024 10022 10021 10019 10018 10016 10014 10013 10011 10010 10009 10008 10006 10005 10004 10003 10001 10000 9999 9998 9997 9996 9995 9994 9993 9992 9991 9991 9990 9990 9990 9989 9989 9989 9988 9988 9989 9989 9989 9990 9990 9990 9991 9991 9993
10130 10125 10120 10115 10110 10106 10102 10098 10095 10091 10087 10084 10080 10076 10073 10071 10068 10065 10062 10060 10058 10055 10053 10050 10048 10046 10044 10043 10042 10041 10041 10039 10037 10035 10033 10031 10028 10026 10025 10023 10021 10020 10018 10016 10015 10014 10012 10010 10008 10008 10006 10005 10004 10003 10001 10000 9999 9998 9996 9995 9995 9993 9993 9991 9990 9990 9988 9988 9987 9986 9986 9986 9985 9985 9985 9985 9985 9985 9985 9985 9985 9985 9986 9986 9987 9988
10121 10117 10113 10108 10103 10100 10095 10092 10088 10085 10081 10078 10075 10071 10068 10065 10063 10060 10056 10055 10053 10050 10048 10045 10043 10041 10039 10037 10036 10036 10036 10035 10032 10030 10028 10026 10025 10023 10021 10019 10017 10015 10014 10013 10011 10010 10008 10006 10005 10003 10002 10001 10000 9999 9998 9996 9995 9994 9993 9991 9991 9990 9989 9988 9987 9986 9985 9985 9983 9983 9983 9982 9982 9981 9981 9981 9981 9981 9981 9981 9981 9981 9981 9981 9982 9983
10114 10110 10105 10101 10097 10093 10090 10086 10083 10079 10076 10073 10070 10066 10063 10060 10058 10055 10051 10050 10047 10045 10043 10040 10038 10036 10034 10033 10031 10031 10030 10030 10028 10026 10024 10022 10020 10018 10017 10015 10013 10011 10010 10008 10007 10006 10005 10003 10001 10000 9998 9997 9996 9995 9994 9993 9991 9990 9990 9988 9987 9986 9985 9985 9984 9983 9982 9981 9980 9980 9979 9978 9978 9978 9978 9977 9977 9976 9976 9976 9976 9976 9976 9977 9978 9978
10106 10103 10098 10095 10091 10087 10084 10080 10077 10074 10071 10068 10065 10061 10058 10055 10053 10050 10047 10045 10043 10040 10038 10036 10033 10031 10030 10028 10026 10025 10025 10025 10023 10021 10020 10018 10016 10014 10013 10011 10010 10007 10006 10004 10003 10002 10001 10000 9998 9996 9995 9993 9992 9991 9990 9989 9988 9987 9986 9985 9984 9983 9982 9981 9980 9980 9979 9978 9977 9976 9976 9975 9975 9975 9974 9973 9973 9973 9973 9973 9973 9972 9972 9973 9973 9973
10100 10096 10092 10088 10085 10081 10078 10075 10071 10068 10065 10063 10060 10056 10054 10051 10048 10046 10043 10041 10038 10036 10034 10031 10029 10027 10026 10024 10022 10021 10020 10020 10019 10018 10016 10013 10011 10010 10009 10008 10006 10004 10002 10001 9999 9998 9997 9996 9996 9994 9992 9990 9989 9988 9987 9986 9985 9984 9983 9982 9981 9980 9979 9978 9978 9976 9976 9975 9974 9973 9973 9972 9971 9971 9970 9970 9970 9970 9969 9969 9969 9968 9968 9968 9969 9970
10093 10089 10085 10082 10079 10076 10073 10070 10066 10063 10060 10058 10055 10052 10050 10047 10045 10042 10040 10037 10035 10032 10030 10028 10025 10023 10021 10020 10018 10017 10016 10015 10014 10013 10011 10010 10008 10006 10005 10004 10002 10000 9999 9997 9996 9994 9993 9991 9991 9990 9989 9987 9986 9985 9983 9983 9981 9981 9980 9979 9978 9977 9976 9975 9975 9973 9973 9972 9971 9970 9970 9969 9968 9968 9967 9966 9966 9966 9965 9965 9965 9965 9965 9965 9965 9966
10086 10083 10079 10076 10073 10070 10067 10064 10061 10058 10056 10053 10050 10048 10045 10043 10041 10038 10036 10033 10031 10028 10026 10024 10021 10020 10018 10016 10015 10013 10013 10011 10010 10009 10007 10006 10004 10002 10001 10000 9998 9997 9995 9994 9993 9991 9990 9988 9987 9986 9985 9984 9983 9981 9980 9980 9979 9978 9977 9976 9975 9974 9973 9972 9971 9971 9970 9969 9968 9967 9966 9966 9965 9964 9964 9963 9963 9962 9962 9962 9962 9962 9962 9962 9961 9962
10080 10076 10073 10070 10067 10065 10061 10059 10056 10053 10051 10048 10046 10043 10041 10039 10037 10035 10032 10030 10028 10025 10023 10021 10018 10016 10014 10012 10011 10010 10009 10008 10007 10006 10003 10002 10000 9998 9997 9996 9995 9993 9992 9991 9990 9988 9986 9985 9983 9983 9981 9981 9980 9978 9977 9976 9976 9975 9974 9973 9972 9971 9970 9970 9968 9968 9966 9966 9965 9964 9963 9963 9962 9961 9961 9960 9960 9960 9959 9958 9958 9958 9958 9958 9958 9958
10075 10071 10068 10065 10062 10059 10056 10054 10051 10049 10046 10044 10041 10040 10037 10035 10033 10031 10029 10026 10024 10022 10020 10018 10015 10013 10011 10009 10007 10006 10005 10005 10004 10003 10001 9999 9997 9995 9994 9993 9991 9990 9989 9988 9986 9985 9983 9982 9981 9980 9978 9977 9976 9976 9975 9973 9973 9972 9971 9970 9970 9968 9968 9966 9966 9965 9964 9963 9962 9961 9960 9960 9959 9958 9958 9957 9957 9956 9956 9956 9955 9955 9955 9955 9955 9956
10069 10066 10063 10060 10056 10054 10051 10049 10046 10044 10041 10040 10037 10035 10033 10031 10030 10028 10025 10023 10021 10019 10016 10015 10012 10010 10008 10006 10004 10003 10001 10001 10000 9999 9998 9996 9994 9993 9991 9990 9988 9987 9986 9985 9983 9982 9981 9979 9978 9976 9976 9975 9973 9973 9972 9971 9970 9969 9968 9968 9966 9966 9965 9964 9963 9962 9961 9960 9959 9958 9958 9957 9956 9956 9955 9955 9954 9954 9953 9953 9953 9952 9952 9952 9952 9952
10064 10061 10058 10055 10052 10049 10046 10045 10042 10040 10037 10035 10033 10031 10029 10028 10026 10024 10022 10020 10018 10016 10014 10011 10010 10007 10005 10003 10001 10000 9998 9997 9996 9995 9995 9993 9991 9990 9988 9986 9985 9984 9983 9981 9980 9979 9978 9976 9975 9974 9973 9972 9971 9970 9969 9968 9968 9966 9966 9965 9964 9963 9962 9961 9960 9959 9958 9957 9956 9955 9955 9954 9953 9953 9953 9952 9951 9951 9950 9950 9950 9950 9949 9949 9949 9949
10060 10056 10053 10050 10047 10045 10042 10040 10038 10035 10033 10031 10029 10027 10025 10023 10022 10020 10018 10016 10015 10013 10011 10009 10007 10005 10003 10001 9998 9996 9995 9994 9993 9992 9991 9990 9988 9987 9985 9983 9982 9981 9980 9979 9977 9976 9975 9974 9973 9971 9970 9970 9968 9968 9966 9966 9965 9964 9963 9962 9961 9960 9959 9958 9957 9956 9955 9955 9953 9953 9952 9951 9951 9950 9950 9949 9948 9948 9948 9947 9947 9946 9946 9946 9946 9946
10055 10052 10049 10046 10043 10040 10038 10035 10033 10031 10029 10026 10025 10023 10021 10020 10018 10016 10015 10013 10011 10010 10008 10006 10004 10002 10000 9998 9996 9995 9993 9991 9990 9989 9988 9986 9985 9984 9983 9981 9980 9978 9977 9976 9975 9973 9972 9971 9970 9969 9968 9967 9966 9965 9965 9963 9963 9961 9961 9960 9959 9958 9956 9955 9955 9953 9953 9952 9951 9950 9950 9949 9948 9948 9947 9946 9946 9945 9945 9945 9945 9944 9943 9943 9943 9943
10051 10048 10045 10042 10040 10036 10034 10031 10029 10027 10025 10023 10021 10019 10017 10015 10014 10013 10011 10010 10008 10006 10005 10003 10001 10000 9998 9996 9994 9992 9991 9989 9988 9986 9985 9984 9983 9981 9980 9979 9977 9976 9975 9973 9972 9971 9970 9968 9968 9966 9966 9965 9964 9963 9962 9961 9960 9960 9958 9958 9956 9955 9955 9953 9952 9951 9950 9950 9948 9948 9947 9946 9946 9945 9945 9944 9943 9943 9943 9942 9941 9941 9941 9941 9940 9940
10046 10044 10041 10038 10036 10033 10030 10028 10026 10023 10021 10019 10016 10015 10013 10011 10010 10009 10008 10006 10005 10003 10002 10000 9998 9997 9995 9994 9992 9990 9988 9987 9986 9984 9983 9981 9980 9979 9978 9976 9975 9973 9972 9971 9970 9968 9968 9966 9965 9964 9963 9963 9962 9961 9960 9959 9958 9957 9956 9955 9955 9953 9952 9951 9950 9949 9948 9947 9946 9946 9945 9944 9943 9943 9942 9941 9941 9940 9940 9940 9939 9938 9938 9938 9938 9938
10042 10040 10037 10035 10032 10030 10027 10025 10022 10020 10018 10015 10013 10011 10010 10008 10006 10005 10004 10003 10002 10001 9999 9998 9996 9995 9993 9991 9990 9988 9986 9985 9983 9981 9981 9980 9978 9976 9975 9974 9973 9971 9970 9968 9968 9966 9965 9965 9963 9962 9961 9960 9960 9959 9958 9957 9956 9955 9954 9953 9952 9951 9950 9949 9948 9947 9946 9945 9944 9943 9943 9942 9941 9940 9940 9940 9939 9938 9938 9937 9936 9936 9936 9935 9935 9935
10038 10035 10033 10030 10028 10026 10023 10021 10019 10016 10015 10012 10010 10008 10006 10005 10003 10001 10000 10000 9998 9998 9996 9995 9993 9992 9991 9990 9988 9986 9984 9983 9981 9980 9978 9977 9976 9975 9973 9971 9970 9969 9968 9966 9965 9964 9963 9962 9961 9960 9959 9958 9958 9957 9956 9955 9954 9953 9952 9951 9950 9949 9948 9947 9946 9945 9944 9943 9942 9941 9940 9940 9939 9938 9938 9937 9936 9936 9935 9935 9934 9934 9933 9933 9933 9932
10033 10031 10028 10026 10024 10022 10020 10018 10015 10013 10011 10009 10007 10005 10003 10001 10000 9998 9997 9996 9995 9994 9993 9992 9991 9990 9988 9987 9986 9984 9982 9981 9979 9977 9976 9975 9973 9972 9971 9970 9968 9967 9966 9965 9963 9962 9961 9960 9960 9958 9958 9956 9956 9955 9954 9953 9952 9951 9950 9949 9948 9948 9946 9945 9945 9943 9942 9941 9940 9940 9938 9938 9937 9936 9936 9935 9935 9933 9933 9932 9931 9931 9931 9931 9930 9930
10028 10026 10024 10022 10020 10018 10015 10013 10011 10010 10008 10006 10004 10002 10000 9998 9997 9995 9994 9993 9991 9991 9990 9989 9988 9986 9985 9985 9983 9982 9980 9978 9977 9975 9974 9973 9971 9970 9968 9967 9966 9965 9964 9963 9962 9961 9960 9958 9958 9956 9956 9955 9954 9953 9952 9951 9951 9950 9948 9948 9946 9945 9945 9943 9943 9941 9940 9940 9938 9938 9937 9936 9935 9935 9934 9933 9932 9931 9931 9930 9930 9929 9929 9928 9928 9928
10025 10022 10020 10018 10016 10014 10011 10010 10008 10006 10004 10002 10000 9999 9997 9995 9993 9992 9991 9990 9988 9987 9986 9985 9985 9983 9983 9981 9981 9980 9978 9976 9975 9973 9971 9970 9969 9968 9966 9965 9964 9963 9961 9961 9960 9959 9958 9957 9956 9955 9954 9953 9953 9951 9951 9950 9949 9948 9947 9946 9945 9944 9943 9941 9941 9940 9939 9938 9937 9936 9935 9935 9934 9933 9932 9931 9930 9930 9929 9928 9928 9928 9927 9926 9926 9926
10021 10018 10016 10014 10012 10010 10008 10006 10004 10002 10000 9999 9997 9995 9993 9992 9990 9989 9988 9986 9985 9984 9983 9982 9981 9980 9980 9979 9978 9977 9976 9975 9973 9971 9970 9968 9967 9966 9965 9963 9962 9961 9960 9959 9958 9956 9956 9955 9954 9953 9953 9952 9951 9950 9949 9948 9948 9946 9945 9945 9943 9943 9941 9940 9939 9938 9937 9936 9935 9934 9933 9933 9932 9931 9930 9930 9928 9928 9927 9926 9926 9926 9925 9925 9924 9923
10018 10015 10013 10011 10009 10006 10005 10003 10001 9999 9997 9995 9994 9992 9990 9989 9987 9986 9984 9983 9982 9981 9980 9979 9978 9978 9976 9976 9975 9974 9973 9972 9971 9970 9968 9966 9965 9964 9963 9961 9960 9960 9958 9957 9956 9955 9954 9953 9953 9951 9951 9950 9950 9949 9948 9947 9946 9945 9944 9943 9942 9941 9940 9939 9938 9937 9936 9935 9934 9933 9932 9931 9931 9930 9929 9928 9927 9926 9926 9925 9924 9924 9923 9923 9922 9921
10015 10012 10010 10008 10005 10003 10001 10000 9997 9995 9993 9992 9990 9989 9987 9986 9984 9983 9981 9980 9979 9978 9977 9976 9975 9975 9974 9973 9972 9971 9971 9970 9968 9967 9966 9965 9963 9962 9961 9960 9959 9958 9956 9955 9955 9953 9953 9951 9951 9950 9950 9949 9948 9947 9946 9946 9945 9943 9943 9941 9941 9940 9939 9938 9936 9936 9935 9933 9933 9931 9931 9930 9929 9928 9928 9927 9926 9925 9924 9923 9923 9922 9921 9921 9920 9920
10011 10009 10006 10005 10002 10000 9998 9996 9994 9992 9990 9989 9987 9986 9984 9983 9981 9980 9978 9977 9976 9975 9974 9973 9972 9971 9971 9970 9970 9969 9968 9967 9966 9965 9964 9963 9961 9960 9959 9958 9957 9956 9955 9954 9953 9952 9951 9950 9950 9949 9948 9947 9946 9946 9945 9945 9943 9943 9941 9940 9940 9938 9938 9936 9935 9935 9933 9932 9931 9930 9930 9929 9928 9927 9926 9926 9925 9923 9923 9922 9921 9921 9920 9919 9918 9918
10008 10006 10003 10001 9999 9996 9995 9993 9991 9989 9987 9985 9984 9982 9981 9980 9978 9976 9975 9974 9973 9972 9971 9970 9970 9969 9968 9968 9967 9966 9965 9965 9963 9963 9961 9960 9959 9958 9958 9956 9956 9955 9953 9952 9951 9950 9950 9949 9948 9948 9947 9946 9945 9945 9944 9943 9942 9941 9940 9940 9938 9938 9936 9935 9935 9933 9932 9931 9930 9930 9928 9928 9927 9926 9925 9925 9923 9922 9921 9920 9920 9919 9918 9918 9917 9916